Theta_e
300 294 291 291 293 294 294 294 295 295 293 295 296 295 293 293 294 302 308 314 323 316 316 317 318 317 318 320 320 325 330 328 327 326 326 326 326 327 327 328 329 329 331 335 335 337 337 340 342 343 343 343 344 344 346 344 345 346 347 347 345 346 347 346 345 345 345 344 344 345 344 343 346 347 349 349 349 349 349 350 351 354 355 353 354 354
299 296 292 294 295 295 296 295 295 295 295 295 294 292 291 294 292 300 306 315 323 317 309 315 315 317 319 320 320 325 329 327 327 326 325 326 326 326 327 328 329 330 334 337 335 338 337 339 341 342 342 346 341 343 345 344 345 346 347 346 345 346 346 346 346 346 346 346 345 344 344 344 345 347 347 346 348 349 350 350 352 355 355 353 353 355
294 292 297 298 298 297 297 295 294 294 294 293 292 292 291 293 294 298 310 314 321 317 308 309 313 315 316 317 319 324 327 326 327 326 326 326 325 325 325 327 328 329 331 333 335 337 337 339 340 341 341 342 343 345 345 345 346 346 345 345 345 346 346 346 346 346 345 346 347 346 346 346 346 350 350 349 349 351 349 350 353 355 354 352 352 354
293 293 297 300 297 297 296 296 294 294 294 291 290 292 290 294 294 289 297 315 319 314 307 309 309 309 312 315 319 323 325 326 328 328 326 327 328 328 330 331 330 328 330 331 333 335 338 339 339 339 340 342 343 344 344 343 343 345 345 345 345 345 346 346 347 348 347 347 348 349 348 348 348 347 350 349 349 349 349 348 353 355 354 352 351 353
295 298 297 297 297 297 296 295 295 294 292 292 293 291 291 292 293 293 295 312 313 315 313 309 301 303 306 313 315 321 324 325 324 325 324 325 328 331 331 332 331 331 331 331 333 335 337 337 338 338 340 342 341 342 343 342 343 345 345 345 345 345 346 346 349 349 348 349 348 349 349 349 348 348 348 345 344 347 348 349 351 353 354 353 352 353
295 299 300 299 296 296 296 294 293 294 290 289 291 295 296 296 294 306 310 311 305 303 310 307 294 293 300 306 313 316 318 322 322 323 323 322 323 327 329 330 329 330 334 333 333 334 337 338 339 340 341 341 341 342 344 344 345 345 345 345 345 346 346 346 348 349 349 348 346 345 343 341 341 341 342 341 341 343 345 346 351 354 354 354 353 354
297 299 298 298 296 294 294 294 293 296 291 290 292 294 297 295 298 310 308 303 297 296 305 309 299 291 297 306 311 314 318 318 320 320 322 321 323 325 327 330 331 332 334 335 335 336 336 338 338 339 339 340 341 344 346 346 346 347 346 346 346 346 346 347 349 349 350 347 346 345 344 343 342 341 343 345 345 344 346 348 349 352 353 354 353 353
300 297 296 295 294 292 293 292 294 296 291 289 292 293 295 301 306 310 309 304 298 305 310 306 298 296 294 300 309 312 316 315 317 320 321 321 322 324 325 330 332 332 334 335 334 335 337 338 338 337 339 341 343 346 347 346 346 345 344 346 346 347 347 347 349 348 349 346 346 345 345 345 343 343 343 344 343 344 346 346 347 350 351 354 355 354
298 297 297 296 292 290 291 292 293 297 293 292 296 299 299 305 309 311 308 301 301 301 297 301 305 300 295 298 308 314 313 313 315 318 320 320 320 321 325 328 332 333 334 336 335 335 336 336 338 339 339 345 345 346 345 345 345 345 345 345 345 347 348 348 349 349 349 348 347 346 345 344 345 344 344 346 345 344 347 344 346 348 349 351 354 354
298 298 299 298 296 294 292 293 294 298 294 298 304 310 310 310 309 308 302 301 300 296 293 300 303 297 295 296 304 308 311 311 314 316 318 320 321 320 323 327 332 333 333 336 337 337 336 337 339 340 343 345 343 345 348 345 343 343 344 346 345 345 347 348 348 349 348 348 348 346 345 344 343 344 345 345 343 343 344 342 343 346 347 349 352 353
298 313 306 300 298 296 295 295 295 297 298 299 302 305 304 302 302 303 299 298 297 291 294 300 304 299 292 294 303 306 309 311 313 314 316 319 321 321 322 327 331 332 333 334 336 337 337 339 340 342 341 342 343 345 344 343 344 345 344 346 344 343 346 348 348 348 347 347 347 345 344 344 343 343 343 342 341 341 342 341 341 344 345 347 349 351
298 299 302 302 307 299 299 298 298 296 297 298 295 297 298 297 297 295 293 295 293 288 293 296 301 301 294 295 303 307 311 312 314 314 315 318 320 321 322 328 330 332 333 334 335 335 337 338 337 340 340 341 342 343 343 342 343 344 344 344 343 342 345 346 348 348 347 347 346 345 344 343 343 343 343 342 341 341 341 340 340 343 344 345 347 348
294 296 296 298 316 301 297 296 296 293 294 296 297 297 292 287 289 290 291 293 290 288 296 300 301 300 298 296 306 308 311 315 317 317 317 319 320 321 323 327 330 333 333 332 333 334 334 335 337 337 339 339 340 340 342 341 342 343 343 344 342 341 345 347 348 347 347 347 346 345 344 343 344 343 344 343 342 342 341 341 340 341 342 344 344 345
290 293 296 297 300 306 297 292 292 295 293 294 293 289 285 284 281 282 282 286 286 291 297 300 302 296 298 303 308 311 314 317 319 320 322 322 321 321 323 325 329 332 334 331 334 334 334 336 339 339 339 339 340 341 342 342 342 342 342 341 340 342 344 346 346 347 347 346 346 345 344 343 344 343 344 343 342 343 343 342 341 342 342 342 343 344
287 287 295 296 296 298 296 292 293 292 292 293 292 293 291 285 284 284 283 285 286 287 295 300 297 293 297 302 312 313 316 318 321 322 322 323 322 323 324 325 327 331 334 332 333 335 336 338 340 341 341 340 340 341 342 342 342 341 342 342 341 341 341 344 346 347 346 346 345 345 344 344 344 343 344 345 344 344 343 343 342 342 342 342 343 344
292 289 294 297 299 299 299 298 297 294 294 295 295 294 293 291 290 287 285 286 287 293 294 297 296 299 299 308 314 316 319 321 325 324 326 323 324 324 324 325 327 330 333 333 333 335 339 341 342 341 341 340 340 341 341 342 342 341 341 341 342 342 342 345 346 346 346 346 346 344 343 343 345 346 345 346 348 346 345 344 343 342 343 343 344 345
291 290 297 297 301 298 300 300 302 297 291 293 296 294 293 295 298 295 298 296 295 290 290 296 298 299 305 309 314 315 318 318 321 322 323 323 323 322 324 324 326 329 332 334 334 336 339 342 342 341 341 340 340 340 340 341 341 341 340 340 342 344 343 343 345 346 347 346 345 344 343 343 344 345 344 344 345 344 345 345 344 343 343 344 345 344
291 291 293 297 298 302 299 300 300 299 297 294 292 291 297 298 296 291 288 288 286 286 288 296 296 296 294 296 308 314 314 316 317 322 321 321 321 322 323 324 326 328 331 334 336 337 339 342 342 342 341 341 339 339 339 340 341 341 341 341 343 344 342 343 345 346 346 346 345 344 344 343 344 345 344 344 345 345 345 345 345 345 344 344 345 346
295 291 291 298 296 299 300 300 298 301 301 297 296 297 298 293 293 290 291 286 287 287 286 290 295 297 296 297 303 308 311 312 314 318 319 320 321 322 323 324 325 327 330 331 334 336 338 340 342 342 342 342 341 341 340 340 341 341 341 342 344 344 345 345 346 346 347 347 345 345 345 344 343 345 346 344 346 345 344 344 344 344 345 345 347 349
295 290 290 296 298 299 299 295 294 295 299 300 299 299 298 293 288 291 291 288 289 285 286 288 292 293 300 301 305 307 311 313 313 318 322 322 322 322 323 324 324 325 327 330 332 335 338 339 340 341 341 341 340 341 341 341 341 340 341 342 344 346 345 345 345 346 345 346 346 345 345 345 345 345 346 346 345 344 343 344 344 345 345 345 348 348
295 291 289 294 297 298 296 295 293 293 295 299 294 292 296 294 296 294 294 293 291 288 285 286 286 290 296 304 308 308 310 313 316 320 322 323 323 323 324 324 325 325 326 329 332 334 337 339 341 341 341 342 342 342 342 341 340 340 341 341 344 344 344 344 345 345 345 346 346 346 344 345 345 344 346 346 345 344 344 344 346 345 346 348 347 348
294 293 291 290 296 294 293 296 296 296 295 293 292 293 292 292 293 292 290 293 294 290 285 286 286 290 299 312 311 311 312 314 317 322 323 323 324 324 326 326 326 326 327 329 332 334 336 339 341 342 342 342 342 341 341 341 340 340 340 342 344 345 344 344 344 345 345 345 346 345 345 345 346 346 346 346 346 346 345 344 345 346 347 346 347 349
297 293 291 291 290 291 296 301 302 299 298 296 297 297 293 293 292 286 285 290 293 296 297 290 290 291 303 311 315 316 314 316 318 323 323 324 324 325 326 328 329 329 329 331 333 334 336 338 340 341 342 342 341 341 341 340 339 339 340 343 344 345 344 345 345 346 346 345 345 345 345 345 345 345 345 345 345 345 346 346 345 347 346 346 347 349
325 291 292 292 292 296 297 299 302 301 302 301 298 295 295 296 292 292 288 290 291 294 293 292 291 290 301 311 315 316 316 317 319 323 324 325 326 326 326 327 327 329 331 333 333 334 336 338 340 342 343 342 340 341 340 340 339 340 341 343 345 344 345 346 346 346 346 345 345 345 345 345 345 345 344 344 344 344 346 346 346 348 347 346 347 348
297 294 293 289 286 289 291 292 297 299 299 295 296 297 297 297 297 295 295 293 293 293 293 290 287 290 301 310 316 318 320 322 323 324 324 326 325 326 327 326 326 328 330 333 334 334 335 337 337 334 333 335 337 339 339 339 339 340 340 344 345 345 346 346 347 346 345 345 345 345 344 344 344 344 344 344 344 344 344 345 345 347 347 346 346 346
298 294 292 286 285 284 285 285 285 290 295 297 299 299 300 299 297 297 297 292 288 294 295 291 289 294 300 310 316 317 318 319 321 323 326 324 326 327 327 328 327 328 329 330 332 334 335 335 331 331 333 335 337 338 339 339 339 340 340 341 346 345 346 346 347 346 345 345 344 345 344 344 344 344 344 344 344 344 344 344 345 345 347 346 345 345
296 298 291 290 292 290 292 291 294 301 295 294 298 297 298 299 298 296 293 290 289 291 295 293 295 296 303 310 314 315 316 319 321 322 324 326 325 325 325 327 328 329 329 331 333 332 334 332 331 333 334 336 337 338 339 339 340 340 340 341 344 346 346 346 346 346 345 345 345 344 345 345 345 345 344 345 345 345 344 344 344 343 344 347 345 344
296 297 296 293 295 295 294 294 297 303 296 296 297 298 297 297 297 296 294 293 295 296 289 295 297 300 301 306 313 315 316 317 319 321 323 323 325 326 328 327 336 330 329 329 331 333 333 332 332 333 334 335 336 337 339 340 341 340 340 341 343 344 346 346 346 345 345 345 344 344 345 346 346 346 346 346 346 345 345 344 344 343 344 346 345 343
295 294 296 295 295 295 294 297 303 299 297 296 297 296 298 297 297 297 295 295 296 292 290 294 299 300 301 305 313 316 317 319 320 322 324 325 326 326 326 328 328 329 329 329 330 330 332 333 333 333 334 334 336 336 338 339 340 342 343 343 343 343 345 346 345 345 345 345 344 344 345 346 347 347 347 348 346 345 345 345 345 344 343 344 343 343
296 294 297 296 296 295 297 296 299 298 297 297 297 296 296 297 297 297 297 298 298 296 295 298 301 303 304 305 311 318 320 320 320 321 323 325 325 326 327 326 328 328 328 329 330 331 331 333 334 333 334 334 335 336 336 337 339 341 342 342 343 343 344 345 344 344 345 345 345 346 346 346 348 348 347 347 346 346 346 346 346 344 343 341 342 343
297 295 304 294 293 297 296 302 299 297 297 296 297 299 298 297 299 300 299 301 303 299 301 299 301 302 306 307 310 317 319 319 319 321 322 323 324 326 326 327 327 328 328 328 329 330 332 334 335 334 334 333 333 335 336 337 338 340 342 343 344 344 344 344 343 343 343 344 345 346 347 346 346 347 346 347 347 347 346 346 346 346 345 343 341 341
297 295 295 291 293 293 296 297 296 297 297 296 297 298 298 297 297 297 297 301 299 298 299 300 300 300 305 305 314 316 317 318 318 319 320 321 323 325 326 326 327 327 328 328 328 329 330 333 335 335 335 334 333 333 335 336 337 339 341 343 345 346 346 344 343 343 343 344 344 345 345 345 345 344 344 344 345 346 347 347 346 346 346 344 342 342
294 295 295 290 290 289 296 295 296 293 297 294 294 295 298 296 298 299 301 305 303 302 299 297 299 304 305 312 313 313 316 317 317 318 320 321 321 325 326 327 327 327 328 329 329 331 330 331 335 337 338 337 335 334 335 336 337 337 339 341 344 347 346 345 344 343 343 343 344 343 342 341 341 341 342 342 342 343 345 345 345 345 345 344 344 343
298 296 292 293 292 288 293 296 296 292 287 286 294 297 300 300 299 299 298 301 304 304 301 303 304 306 307 313 312 312 314 316 319 320 323 323 322 323 325 326 327 327 327 328 330 331 331 331 333 336 338 339 339 338 338 339 337 338 340 342 344 345 346 346 345 344 344 343 343 343 341 340 340 341 342 342 342 343 342 343 343 344 344 345 346 343
299 295 293 292 291 291 293 295 292 286 287 295 300 303 302 302 301 300 300 302 303 305 305 305 304 306 309 314 314 315 317 319 320 320 321 323 324 325 325 326 326 326 326 326 327 330 331 332 333 333 335 337 339 340 341 340 340 341 341 342 343 345 345 346 345 344 344 343 343 343 342 341 340 340 341 342 342 342 341 342 342 344 345 345 343 342
297 295 295 294 291 291 292 290 284 285 291 298 300 305 308 303 302 302 302 302 302 305 305 304 305 307 309 312 314 315 316 319 320 321 321 322 325 326 325 325 326 326 326 327 328 330 331 332 334 335 336 341 340 340 341 341 342 341 340 341 342 342 344 344 343 343 343 343 343 343 343 342 342 342 343 342 342 342 342 342 342 342 345 347 345 344
301 296 296 295 295 290 288 288 290 294 295 301 301 301 301 301 300 299 294 297 301 305 305 305 305 307 311 313 316 317 318 318 316 317 321 322 323 324 326 326 327 327 329 329 331 332 333 334 334 334 339 335 336 336 335 337 341 341 341 340 340 341 341 342 342 342 342 342 341 341 342 344 342 342 343 343 343 342 343 343 343 344 347 347 348 347
301 301 295 295 293 290 288 288 289 290 288 292 299 301 305 304 306 302 301 297 303 305 307 306 306 306 311 314 316 317 316 314 311 313 318 322 323 324 327 329 330 331 331 331 332 332 332 334 335 339 334 334 335 334 333 334 338 339 339 339 338 339 340 341 341 342 343 343 341 340 341 343 344 343 344 343 342 342 343 344 344 344 348 347 347 347
299 299 298 298 292 291 290 287 284 287 290 297 301 303 303 304 304 303 302 294 298 305 308 307 307 307 312 315 316 316 313 308 308 313 317 320 324 327 328 329 331 331 332 333 333 333 334 334 335 336 333 332 332 331 332 333 334 335 335 336 334 336 337 338 339 340 341 342 343 344 343 343 344 344 345 344 344 343 343 343 344 346 347 348 349 348
297 296 296 296 292 293 290 287 287 290 295 300 300 302 302 304 304 303 291 290 299 305 309 307 307 308 312 315 317 315 312 306 309 314 318 321 323 326 328 329 330 331 333 334 334 335 335 338 337 333 333 333 331 331 330 330 332 336 333 333 332 333 334 336 337 338 339 340 341 343 344 345 345 345 345 345 346 346 345 346 347 347 347 348 349 349
294 294 294 292 293 295 297 289 288 292 300 303 304 303 303 305 304 293 289 298 302 306 310 309 308 311 315 317 317 314 314 314 315 316 320 325 325 326 328 330 331 333 333 333 336 342 335 332 331 332 331 331 332 333 332 331 331 333 336 333 330 330 332 335 336 338 338 339 340 340 341 341 342 344 346 347 346 346 347 348 348 348 348 348 348 348
292 293 295 293 292 292 293 292 291 291 297 303 306 304 304 303 293 291 301 302 306 309 310 310 310 313 318 319 317 317 318 315 318 319 323 324 324 326 329 330 332 334 337 340 342 336 331 330 328 329 330 331 333 333 331 331 332 334 334 333 331 331 333 337 339 337 334 333 333 334 334 334 335 338 339 342 345 346 346 348 349 349 349 349 347 343
293 294 290 289 291 291 291 291 289 287 300 308 306 304 307 299 299 302 303 309 312 312 311 311 313 314 318 318 318 316 319 320 321 322 324 324 325 327 329 331 331 333 334 334 333 336 332 330 329 329 329 332 333 334 334 334 334 334 334 331 332 335 337 338 334 332 332 333 331 332 331 331 331 333 334 336 339 340 341 345 346 347 348 347 345 342
299 297 291 291 292 288 289 288 288 294 300 306 307 302 302 305 303 303 310 309 312 312 312 313 313 315 318 320 317 316 319 321 321 322 323 324 325 327 329 329 330 331 330 331 332 334 333 328 329 330 330 329 330 330 332 333 333 335 335 333 335 339 339 335 330 330 332 335 331 329 329 328 328 327 327 328 330 332 334 338 342 344 345 346 345 340
302 301 298 295 296 294 291 292 298 302 306 308 307 307 307 308 307 310 313 313 313 312 312 315 314 314 317 319 318 319 319 321 322 323 324 324 326 328 329 330 330 330 331 331 332 337 332 329 328 329 329 328 329 329 331 332 332 334 334 334 336 338 337 333 331 330 329 327 326 326 324 323 323 323 323 323 323 324 328 331 335 338 342 344 344 344
307 307 304 304 300 302 303 305 307 310 311 312 313 314 312 312 312 313 313 313 314 314 315 316 315 315 314 318 320 319 321 321 322 323 323 325 326 327 328 328 328 329 330 330 332 336 330 327 327 327 328 328 330 331 333 332 331 331 332 332 334 335 335 333 332 331 329 326 325 324 323 321 321 321 322 321 320 321 322 324 327 331 336 340 342 343
305 307 304 301 303 299 296 304 309 310 311 312 313 314 316 315 313 314 315 315 314 315 315 316 316 316 316 321 321 321 320 321 323 324 324 325 326 327 328 328 328 328 329 330 330 334 328 327 326 327 328 327 327 326 328 329 330 331 332 333 333 333 332 333 332 331 329 325 324 322 321 320 321 322 321 319 318 317 318 321 323 325 328 333 337 341
301 310 301 301 303 300 301 306 310 311 311 313 313 313 313 314 315 316 316 316 316 316 316 316 317 317 322 322 321 321 321 323 324 323 324 325 326 327 327 327 327 327 327 327 329 330 325 325 327 327 328 328 329 327 326 327 328 331 333 334 335 335 334 333 331 327 324 323 323 325 324 322 325 324 320 318 318 317 316 316 317 319 322 326 330 334
304 309 299 304 301 305 307 308 310 311 310 312 313 314 316 316 316 316 317 317 317 317 317 318 319 320 323 323 321 322 322 323 325 325 326 325 325 326 327 327 327 329 326 326 328 330 326 326 328 327 328 329 329 327 325 326 327 330 333 333 334 334 333 332 332 330 325 323 323 324 326 326 325 322 321 319 319 318 317 316 316 316 317 319 321 322
302 298 301 299 296 297 302 306 309 306 305 310 312 314 316 318 317 316 317 318 318 318 318 319 320 322 323 323 323 323 323 323 324 325 326 326 326 326 326 326 326 326 326 326 329 328 327 329 328 328 328 328 327 326 325 326 328 331 335 335 335 332 332 333 330 328 326 326 326 326 326 327 326 323 322 320 319 318 319 317 310 312 314 314 317 315
301 297 301 297 299 297 303 308 310 311 310 311 313 316 317 318 318 316 316 318 319 320 320 321 321 321 322 323 324 324 324 325 325 326 326 325 325 326 327 327 327 325 325 326 326 326 325 327 330 328 328 327 325 325 326 327 330 333 335 335 334 333 331 331 331 330 329 330 329 329 330 328 325 324 322 321 320 319 319 321 318 301 301 306 309 307
Wind_Speed
1 1 4 7 8 8 4 6 4 2 2 4 3 1 3 3 7 2 3 4 6 2 7 8 5 5 7 6 4 4 1 3 3 4 2 0 0 1 2 3 5 5 7 4 4 5 8 10 12 12 13 13 13 14 11 11 10 10 10 10 11 9 9 10 9 9 9 8 7 6 7 7 6 7 7 5 5 4 5 5 5 4 5 4 4 3
3 1 8 8 8 7 8 5 2 0 1 2 1 2 7 1 8 2 0 1 6 5 2 3 4 9 11 6 4 3 2 3 6 4 3 0 1 1 1 3 5 6 4 4 3 2 7 9 10 11 11 12 13 11 11 11 12 11 10 11 10 9 9 10 10 9 8 8 8 7 7 6 7 7 7 6 5 6 4 5 5 4 5 4 4 4
0 5 10 9 7 4 3 3 3 5 3 1 3 2 3 8 4 5 1 2 3 3 5 1 4 9 9 5 4 3 3 1 2 3 3 3 1 1 2 3 4 5 6 4 3 2 5 9 11 11 12 12 12 11 11 14 13 12 11 9 9 9 10 9 9 8 8 7 6 6 5 6 5 4 5 5 6 6 5 5 5 5 5 4 3 4
3 6 13 7 5 4 2 2 3 2 1 4 2 1 7 4 2 6 2 2 0 2 2 3 4 8 5 2 1 1 1 3 2 3 3 2 2 0 2 2 3 5 6 6 4 6 5 10 11 10 10 10 10 10 11 11 12 10 10 9 10 10 9 8 9 8 7 7 6 4 5 5 4 5 6 5 6 5 4 5 6 6 5 5 4 5
8 9 2 4 5 6 4 1 3 2 7 3 5 5 7 6 5 6 3 1 1 1 2 2 2 6 3 2 1 0 1 3 2 3 2 2 2 1 2 3 2 3 5 6 5 5 6 8 11 12 10 9 12 11 12 10 10 9 12 11 11 10 9 8 8 8 8 7 7 5 6 6 5 4 5 5 6 6 6 5 6 6 5 5 4 4
10 11 3 2 3 4 4 2 6 6 4 4 6 13 13 11 3 1 3 6 1 3 4 2 2 4 3 5 4 3 1 2 0 1 0 0 2 2 3 4 3 3 3 7 9 10 10 9 8 9 11 12 12 11 10 10 10 9 9 9 9 7 8 8 9 9 8 8 8 9 8 8 7 7 7 8 9 8 8 8 6 6 6 5 4 4
6 1 3 2 4 4 4 5 4 8 6 1 7 10 13 6 4 8 7 5 1 3 3 1 6 4 5 3 2 1 0 3 2 0 2 2 1 2 2 2 4 4 4 4 5 3 6 8 9 9 11 9 8 8 10 9 8 7 9 10 9 9 8 8 8 9 8 8 7 9 9 8 8 7 6 6 6 8 6 5 6 6 5 5 5 4
1 1 3 3 3 3 2 4 5 10 6 3 4 3 5 7 9 11 11 6 2 1 1 4 3 1 5 5 3 5 1 3 4 4 4 3 2 2 1 2 5 5 5 5 5 6 6 7 10 9 8 7 6 5 6 7 6 7 7 9 10 7 8 8 8 9 8 8 7 8 8 8 8 8 6 6 5 6 6 6 6 6 5 5 5 5
1 3 1 0 3 2 4 7 3 8 7 3 2 6 8 9 8 8 5 1 1 2 1 2 1 0 3 4 4 2 1 3 6 6 6 4 2 1 2 3 4 6 6 4 4 6 7 7 6 10 10 6 6 4 3 4 5 6 8 4 1 5 8 8 9 9 8 7 7 8 7 8 6 6 5 4 4 5 6 7 5 5 5 5 5 5
2 3 2 2 1 4 5 4 8 13 4 1 4 10 8 6 7 7 4 3 1 2 3 4 1 2 6 5 3 3 0 4 6 6 6 4 3 2 2 3 3 3 4 3 4 5 4 3 6 7 5 7 6 4 6 8 7 3 3 8 8 4 5 8 9 9 9 8 7 7 7 8 7 6 4 4 5 5 6 6 6 4 4 4 5 5
6 2 5 2 4 5 3 3 5 8 2 5 2 11 7 8 6 3 6 2 2 1 5 1 5 3 2 2 3 2 2 3 3 4 4 3 2 1 2 2 4 3 5 4 5 5 4 4 5 5 6 6 6 6 7 7 6 6 6 6 8 6 4 7 9 10 10 9 8 8 8 9 9 8 6 6 6 5 5 6 5 5 5 4 5 4
6 2 1 4 2 2 1 1 1 2 1 3 1 4 6 6 5 4 2 3 1 4 5 3 4 5 4 3 2 6 3 4 3 2 3 3 2 1 1 1 3 2 1 3 5 7 7 6 4 5 7 6 5 6 7 7 7 6 6 6 8 9 8 8 8 10 9 8 8 7 8 8 8 8 7 8 8 8 7 6 6 5 5 4 4 4
4 7 3 6 4 9 2 2 2 3 2 7 5 7 4 2 3 1 1 1 3 4 1 2 4 2 6 5 3 5 5 4 5 4 2 3 2 0 1 0 1 2 2 1 5 6 3 1 5 7 6 6 6 6 7 7 6 6 7 8 8 8 7 8 9 10 9 8 8 8 8 8 7 8 7 7 7 6 6 5 6 6 6 5 5 5
7 3 2 3 1 2 4 4 1 1 2 5 4 5 5 1 2 1 2 1 5 4 3 1 2 1 3 4 2 3 4 3 3 4 0 0 2 2 1 1 1 3 2 2 3 5 7 6 4 4 5 5 4 5 7 8 8 7 8 8 8 8 7 7 10 9 10 10 9 8 8 8 7 7 8 7 7 6 6 6 7 7 6 7 6 5
3 3 2 1 1 1 3 5 9 6 4 3 2 5 5 7 2 1 3 3 5 4 3 3 2 3 0 2 2 3 4 3 1 1 1 2 2 3 2 1 1 2 2 4 4 3 5 4 4 4 5 5 5 5 6 7 7 7 7 9 10 9 8 9 10 9 9 9 10 8 8 7 6 7 7 7 6 7 7 5 6 7 6 6 6 6
2 5 8 3 2 1 4 2 4 5 4 0 2 4 5 2 6 1 4 3 2 1 1 0 2 1 2 1 3 2 1 3 2 3 2 2 2 3 2 2 2 2 1 4 4 4 3 4 4 4 5 6 7 8 7 8 7 9 8 8 9 10 10 10 10 10 9 9 8 9 8 8 7 7 7 5 5 6 6 6 7 7 7 6 6 5
2 1 2 6 1 0 0 3 1 3 1 3 1 1 2 2 7 5 2 1 1 3 1 0 5 3 6 1 1 1 1 2 3 2 2 1 2 2 3 3 3 3 2 3 4 4 4 4 5 6 7 7 7 7 9 9 9 10 8 8 9 9 10 10 11 10 9 9 9 9 9 9 8 8 7 6 6 7 6 6 6 6 6 6 5 5
4 6 3 3 1 2 1 1 3 2 4 6 0 4 1 2 5 4 1 2 4 1 3 2 1 6 3 2 2 2 1 1 1 0 1 2 2 3 5 4 4 4 4 4 4 5 5 5 7 7 7 8 9 10 9 10 9 8 8 10 10 10 12 13 11 9 9 9 9 10 10 9 9 7 7 6 7 6 5 5 6 5 5 6 5 5
4 3 2 1 3 5 4 2 3 1 1 2 2 4 1 1 0 3 4 1 0 1 2 3 2 3 4 3 0 3 4 4 3 1 1 3 4 6 5 6 5 3 3 4 5 6 6 7 7 7 8 8 9 9 10 9 8 8 9 9 9 10 11 11 9 8 7 8 7 7 8 8 8 9 7 7 6 6 6 7 6 6 6 5 5 5
1 4 5 1 1 2 3 4 1 1 3 3 3 2 0 3 2 1 1 3 5 0 2 3 3 2 5 4 4 3 7 6 4 2 5 6 7 6 6 6 6 6 6 6 6 7 7 7 9 9 8 9 10 10 9 10 9 10 9 9 9 8 8 8 9 8 9 8 8 8 8 9 8 8 7 7 6 6 7 7 6 7 6 6 5 5
2 1 3 2 1 2 1 1 5 5 4 1 1 2 1 3 1 4 2 1 2 4 3 1 1 4 4 6 6 4 6 8 7 7 5 5 5 6 6 6 6 6 6 7 7 8 8 8 8 9 8 8 8 8 8 8 10 9 8 9 9 10 10 9 9 9 8 7 8 9 10 9 10 10 7 7 6 6 7 6 6 7 6 5 6 5
2 1 4 1 1 3 4 3 2 6 6 6 6 3 6 3 2 1 2 1 2 3 2 2 3 7 7 2 5 4 3 4 6 6 6 5 5 5 5 6 6 6 6 6 7 8 7 7 7 7 7 6 6 7 8 8 8 8 9 9 9 8 9 9 9 9 8 8 8 9 9 10 8 7 6 7 6 7 6 6 6 6 6 6 7 6
3 3 5 2 3 3 2 1 0 2 1 3 6 2 5 2 6 5 1 2 2 1 4 2 1 3 2 1 3 5 3 5 5 5 5 5 5 4 4 4 4 6 6 5 6 7 7 7 7 7 8 8 9 8 8 7 8 9 9 9 9 9 10 9 9 8 8 8 9 10 9 8 8 7 8 8 6 7 7 6 6 6 7 7 6 7
5 2 3 2 5 6 5 3 2 2 1 1 3 2 3 2 3 6 4 5 6 1 1 1 0 4 2 1 2 3 4 4 3 5 6 4 4 4 3 3 3 3 4 4 4 4 5 4 2 3 3 2 1 1 1 2 4 6 7 8 8 11 10 9 9 9 9 9 10 9 8 8 7 8 8 8 6 7 7 6 5 6 7 7 6 7
2 2 7 3 2 5 8 6 2 3 3 1 1 1 0 4 5 3 5 1 4 3 4 6 2 2 2 3 2 1 2 4 5 4 3 5 4 3 3 2 2 1 1 2 2 3 2 1 4 11 10 6 4 5 6 5 5 5 4 5 8 8 9 8 7 8 8 9 10 9 8 8 8 8 8 8 6 7 7 6 6 5 7 7 7 7
3 4 6 5 6 4 2 1 5 4 5 1 0 1 0 5 8 4 1 1 1 0 3 2 3 8 6 5 2 1 1 2 2 3 3 2 2 3 3 2 2 1 1 2 2 2 1 7 9 5 9 7 6 5 6 9 11 12 11 10 8 8 8 8 7 8 9 8 8 9 9 9 8 8 9 8 7 8 7 6 6 6 6 7 8 7
3 1 3 8 10 10 10 8 5 3 3 2 2 1 1 3 3 5 6 4 3 3 4 5 3 2 3 3 4 5 3 6 6 4 4 4 3 2 2 2 2 2 1 1 2 2 3 10 6 9 8 4 2 4 6 7 5 6 8 8 7 6 8 8 8 8 8 9 9 8 9 8 8 8 8 8 7 7 7 7 7 7 7 6 7 7
2 2 3 5 7 10 7 3 3 2 4 2 4 3 1 3 4 6 3 2 5 9 2 4 5 3 7 6 7 6 4 4 5 4 4 3 4 5 3 2 2 2 2 0 1 1 3 6 8 8 6 6 5 5 4 4 6 7 7 8 8 7 7 7 8 8 8 8 8 8 8 8 8 8 8 7 7 7 7 6 7 7 6 6 7 7
5 4 2 3 4 2 5 2 3 3 2 4 4 5 4 4 5 5 3 4 8 3 6 3 7 5 5 8 10 10 9 10 10 9 5 4 2 1 1 2 3 3 3 2 2 1 2 6 7 7 4 6 7 6 5 5 3 2 2 2 2 4 6 7 8 8 8 8 8 8 7 7 6 6 7 7 7 7 7 7 6 6 6 6 6 5
4 0 3 0 1 2 0 2 2 5 1 3 2 5 5 6 7 5 3 5 8 2 4 4 9 10 7 8 9 11 10 7 2 3 4 5 5 5 4 4 4 4 4 4 4 2 3 4 5 6 4 5 7 6 5 4 4 3 4 4 4 5 4 5 7 8 8 8 8 7 6 6 5 6 6 7 8 8 7 7 6 6 6 7 7 7
2 1 5 1 2 0 2 2 2 3 6 4 3 2 3 2 0 0 0 2 0 1 1 3 4 7 7 6 6 2 2 3 3 3 5 5 4 5 6 6 5 5 5 4 4 4 2 4 5 5 4 6 6 8 7 6 5 5 4 5 5 5 5 5 5 5 6 8 7 6 6 6 6 6 6 6 6 6 7 7 6 7 7 7 7 6
3 0 2 3 3 1 1 0 1 2 1 5 2 2 1 3 3 2 3 5 5 5 3 4 1 6 8 2 0 3 4 5 5 4 4 4 5 4 6 6 6 6 6 6 5 3 2 5 5 6 6 6 6 6 6 6 5 5 6 5 6 6 6 7 7 7 6 6 5 5 4 4 4 5 4 3 4 3 4 4 5 6 7 7 7 7
0 4 3 3 5 4 1 1 1 1 1 1 4 7 9 4 1 1 1 3 4 8 6 3 8 6 4 2 5 2 4 4 4 5 6 4 4 6 8 8 7 7 7 6 5 5 5 6 7 7 5 4 6 6 7 6 5 6 6 6 4 5 6 7 8 8 7 7 6 6 7 9 9 8 7 6 4 3 2 3 4 6 6 8 7 6
1 2 2 1 4 3 1 2 1 2 4 5 5 4 10 7 7 5 3 7 6 7 6 7 7 1 1 3 6 6 6 8 11 10 5 7 7 7 6 6 6 6 5 4 5 5 5 4 4 6 6 5 6 6 4 5 6 5 3 3 3 5 5 6 6 6 6 6 7 8 8 9 7 6 6 6 6 6 6 6 7 6 5 5 5 6
1 2 2 2 1 3 1 3 2 5 8 8 4 4 2 2 7 8 1 2 4 4 1 1 4 5 9 9 6 7 10 2 0 2 4 4 6 7 9 8 7 6 6 5 5 5 5 6 5 5 4 5 4 3 3 4 4 1 2 4 4 4 4 4 4 4 5 6 7 8 8 9 8 9 8 8 9 9 9 8 7 7 6 6 7 7
1 2 2 1 2 3 3 3 3 6 4 5 4 3 1 6 4 6 1 2 5 10 8 4 8 6 2 3 1 2 4 1 1 1 4 4 6 6 6 6 7 5 5 7 7 6 6 6 7 6 5 2 4 4 3 3 3 3 2 3 4 4 4 4 4 4 4 5 6 6 5 5 5 6 7 7 7 8 9 9 9 10 8 6 5 6
6 3 2 1 0 3 4 6 8 3 5 1 1 2 5 5 5 6 5 8 7 6 9 7 6 3 3 3 2 4 4 3 1 2 2 5 6 5 6 6 6 7 7 4 5 6 5 4 4 3 2 5 5 5 3 1 3 3 2 2 3 3 3 4 4 5 5 5 3 2 3 4 5 5 6 6 7 8 8 7 7 7 6 7 7 7
2 2 4 3 2 3 5 1 2 1 5 5 9 6 4 3 9 5 5 3 3 5 6 6 5 4 4 3 4 4 4 4 1 6 4 4 5 5 2 1 1 2 3 4 2 2 2 3 3 3 4 5 5 4 2 3 4 4 3 2 2 3 2 3 4 4 4 5 7 8 8 8 7 7 7 7 8 8 7 7 6 7 6 8 9 8
3 6 4 6 3 3 2 3 3 4 6 8 10 8 3 1 6 4 1 4 5 8 8 9 8 6 8 9 6 5 5 3 6 7 6 3 3 5 5 2 4 4 4 5 6 7 4 4 4 4 4 5 5 2 2 4 5 4 3 2 2 2 3 3 4 4 4 4 4 5 6 6 6 7 7 7 7 7 8 8 8 7 6 7 7 8
5 2 2 1 2 4 5 3 5 4 3 5 9 6 4 3 5 4 1 6 6 7 9 9 9 9 5 5 8 7 8 6 6 8 2 5 4 6 6 7 5 5 4 4 2 4 5 5 5 4 4 3 4 2 3 3 3 2 2 0 1 2 4 5 4 2 1 1 1 2 3 4 5 6 7 7 7 6 7 6 5 6 7 7 7 8
1 1 2 6 5 5 8 4 2 4 4 6 6 5 3 3 5 6 6 10 5 7 8 9 8 9 9 9 8 7 9 6 5 2 1 6 6 4 2 2 3 6 8 6 5 5 5 4 4 4 2 2 3 3 4 4 3 2 1 1 1 3 4 3 3 1 1 1 2 2 1 1 2 4 5 6 6 6 6 6 7 7 7 8 7 7
2 1 1 2 2 5 5 6 7 4 7 6 1 6 7 7 3 7 10 3 6 6 6 7 9 9 10 12 9 8 5 3 1 0 3 5 6 5 5 6 6 4 3 3 5 5 5 4 4 4 4 3 3 3 3 4 4 3 1 1 2 4 3 3 2 3 3 3 2 2 1 1 1 1 2 3 4 5 5 5 6 7 7 6 7 9
4 2 2 2 1 2 0 1 2 3 3 5 8 3 1 5 9 8 2 0 2 7 11 5 8 9 9 8 4 2 3 3 2 5 5 5 7 8 7 8 8 8 7 6 5 3 5 4 3 3 3 3 3 3 3 2 3 2 2 2 4 3 2 2 2 2 2 2 1 2 2 2 2 3 3 4 3 5 8 7 6 6 6 8 8 10
1 1 2 3 5 3 3 4 4 5 1 3 3 8 6 11 6 9 8 3 2 5 7 7 4 8 9 9 9 2 2 5 2 3 3 3 4 4 4 4 4 5 5 3 4 5 5 4 3 3 3 3 3 2 2 2 2 1 1 3 3 2 3 2 2 2 2 1 3 3 3 4 5 5 4 5 6 6 7 8 8 8 8 8 9 9
2 1 4 2 3 3 3 5 8 5 6 7 3 4 5 5 3 9 7 10 9 5 4 7 8 6 7 8 7 7 4 3 6 8 9 8 6 7 8 7 6 6 6 6 6 4 4 4 4 4 3 2 2 2 2 2 1 1 2 1 2 2 3 3 3 3 2 1 1 2 2 3 3 4 4 4 5 6 6 8 7 9 9 10 11 9
0 0 0 0 4 4 5 7 5 7 7 10 5 4 4 4 3 4 6 8 4 7 10 10 9 9 6 4 8 2 5 6 6 5 2 4 6 4 3 4 4 5 5 5 4 5 5 5 5 5 4 2 1 2 1 0 1 2 3 1 1 2 3 4 3 2 2 2 2 2 1 1 2 3 2 3 4 4 6 7 8 9 9 9 11 11
2 1 1 2 2 1 1 3 7 9 7 6 8 5 1 3 4 2 4 5 7 7 5 5 11 11 9 8 8 8 5 6 7 4 3 4 5 6 6 6 5 6 6 6 5 6 6 6 5 4 3 1 2 2 2 2 2 3 3 3 3 3 4 4 4 3 2 2 2 2 2 0 2 2 2 2 2 4 5 6 7 8 9 9 11 11
1 1 2 1 2 1 2 3 7 9 4 3 3 8 7 9 5 4 1 2 5 4 4 7 8 7 6 6 6 7 7 5 6 6 6 6 7 6 6 5 6 4 3 3 4 5 5 5 5 4 3 1 2 2 2 3 4 3 3 4 3 3 4 4 4 3 2 2 2 1 1 2 3 2 1 2 3 4 5 6 6 7 8 8 10 11
3 3 1 1 2 6 4 3 7 9 4 6 9 6 5 6 9 4 3 4 5 8 6 4 2 8 9 8 6 6 7 6 6 8 8 6 5 5 5 5 5 4 4 3 3 4 3 4 4 3 2 2 2 2 2 3 4 4 4 3 3 1 3 3 3 2 1 1 1 2 2 2 2 2 2 3 4 5 6 7 7 8 10 9 7 7
2 3 1 4 6 4 2 5 4 6 6 11 10 11 8 7 8 8 2 4 5 7 6 7 4 3 3 5 8 8 9 7 6 6 7 7 7 6 5 5 4 4 3 3 3 3 4 4 3 2 2 2 1 2 2 3 4 4 3 3 2 1 3 2 2 1 2 2 2 3 2 2 2 1 2 2 4 6 7 9 13 10 8 9 12 15
1 3 1 2 0 4 6 7 2 3 4 5 7 7 7 4 5 6 5 3 2 3 7 9 7 4 3 3 4 7 7 8 8 6 5 5 5 5 5 7 6 4 5 4 4 3 3 3 2 2 1 1 1 1 2 3 3 4 3 2 2 2 3 3 3 2 1 2 3 3 3 1 1 2 2 3 4 4 7 8 7 13 16 13 15 17
Wind_Direction
127 175 220 218 224 227 239 200 198 123 135 81 88 62 264 275 282 239 246 236 184 90 224 209 236 269 271 260 287 294 162 135 156 195 210 304 13 232 254 259 262 261 250 257 246 197 169 168 167 163 165 164 164 174 173 171 169 172 170 170 176 170 160 160 159 168 169 166 165 166 176 181 179 178 163 160 177 183 187 185 187 189 201 194 183 170
69 273 259 232 225 211 223 206 199 57 51 224 260 324 300 208 279 228 234 230 196 177 312 180 209 259 255 272 267 269 146 187 172 181 213 333 360 312 284 276 257 253 295 283 269 159 153 163 159 159 168 165 163 170 165 166 174 175 174 178 173 167 166 165 165 169 172 176 181 172 177 172 175 175 174 160 168 190 186 186 186 192 200 200 184 181
26 229 252 229 215 198 202 171 165 184 208 132 228 245 337 279 246 289 262 306 220 152 266 166 195 251 263 265 273 217 171 142 155 162 157 145 148 216 258 253 263 283 269 266 223 160 169 156 157 163 172 176 164 150 162 175 176 168 171 178 172 173 169 168 167 167 173 173 171 167 156 167 164 177 180 153 169 182 187 190 189 191 198 199 183 177
314 276 245 248 149 162 224 184 158 148 129 163 121 120 248 227 28 305 303 49 297 148 252 181 200 277 291 295 248 289 153 135 98 107 108 123 139 247 281 252 252 259 252 233 198 182 173 161 161 160 165 160 136 162 173 180 180 172 170 173 174 172 170 165 171 169 166 165 152 134 129 138 155 177 172 145 158 168 180 191 194 196 187 196 187 180
212 239 172 109 164 162 196 204 156 193 271 227 184 204 250 262 223 187 256 71 350 360 90 93 33 318 313 272 302 57 26 100 32 91 85 14 32 290 276 308 320 291 256 231 186 182 171 171 169 163 149 144 155 174 172 175 190 177 174 174 171 169 169 168 168 161 151 152 140 138 110 124 142 147 164 150 158 166 188 188 197 195 179 189 187 177
267 265 186 188 155 173 168 207 206 148 225 299 222 202 223 234 179 130 134 104 55 318 271 130 20 302 288 282 231 267 360 111 154 66 306 285 337 350 324 314 307 284 243 212 201 188 178 174 151 144 150 161 165 171 161 174 194 178 163 162 164 163 165 167 166 155 156 160 159 159 163 168 186 196 182 181 173 171 183 194 191 183 180 185 186 175
227 1 123 186 179 187 174 209 242 165 184 55 274 198 221 211 140 142 151 96 138 192 281 110 164 264 325 310 308 294 215 281 320 295 254 209 218 269 251 277 276 275 273 217 210 206 177 168 158 149 157 173 153 157 155 175 185 163 155 159 164 167 165 164 162 159 162 156 165 172 176 181 191 199 206 195 179 175 179 176 182 186 176 177 184 184
250 319 73 62 95 97 118 270 238 164 119 231 255 134 127 130 154 174 163 158 187 229 348 54 104 169 319 299 313 301 276 301 314 296 284 259 223 214 242 267 268 265 273 249 213 195 191 185 166 144 142 155 159 153 161 156 154 155 161 160 162 166 165 166 160 167 170 166 168 172 178 181 189 203 206 186 166 163 169 173 186 181 179 171 178 182
149 316 339 360 105 112 192 213 189 154 145 217 173 128 146 161 177 149 127 87 166 107 302 314 315 81 262 266 322 12 248 310 290 277 278 286 303 326 268 267 256 252 266 270 214 204 195 177 127 127 149 133 122 118 100 100 83 105 123 92 266 177 163 164 167 168 173 174 173 176 180 188 182 197 207 182 158 158 162 169 172 171 175 170 175 181
275 195 272 158 144 284 230 237 154 174 203 325 114 89 83 74 73 101 88 62 357 58 276 225 195 162 290 275 343 342 48 289 268 279 280 279 289 291 283 297 288 257 274 289 270 221 176 91 84 110 112 87 108 114 113 98 109 112 136 152 152 216 181 167 168 170 172 172 172 181 184 187 180 189 168 162 165 164 157 165 170 166 162 170 178 188
259 332 167 127 237 206 199 239 162 168 159 142 55 76 61 55 77 58 70 95 51 10 259 219 197 131 290 283 224 111 220 205 259 298 286 293 299 301 270 296 340 296 267 277 254 177 133 125 105 97 107 92 106 137 136 121 131 140 167 167 155 159 217 178 171 171 176 175 178 189 187 189 188 187 182 174 180 161 160 171 174 170 173 171 183 183
316 333 133 247 203 119 155 93 88 124 180 177 47 121 74 17 17 39 346 39 81 273 265 271 219 156 168 285 315 238 261 223 204 234 279 287 279 342 296 53 324 281 284 3 88 122 127 126 120 115 118 131 132 133 129 144 155 149 160 171 170 168 184 185 178 175 174 178 183 188 187 189 188 181 188 193 187 178 173 170 173 169 160 184 181 187
297 236 246 317 230 164 147 102 276 28 39 87 95 49 90 280 33 330 7 301 225 212 290 13 125 79 246 216 267 284 261 263 223 206 231 224 245 348 270 359 307 284 102 76 106 121 91 93 146 149 137 144 159 157 147 153 155 161 166 178 176 177 183 195 186 179 174 179 187 189 188 193 190 186 187 196 193 179 172 167 162 168 182 174 188 197
283 305 6 282 331 208 124 125 267 46 3 112 132 124 84 77 41 233 276 231 302 290 258 294 347 258 241 298 235 260 276 244 235 234 312 235 202 179 212 222 277 302 130 156 154 165 166 197 155 144 149 171 162 153 153 157 169 178 177 185 180 178 172 195 197 183 180 187 190 188 187 191 192 190 191 196 198 184 183 171 171 178 185 187 195 187
16 345 302 141 239 134 123 157 180 174 156 194 134 132 174 143 158 223 197 213 221 223 277 304 97 238 85 223 277 261 279 304 235 151 165 142 153 149 170 159 285 284 112 160 172 190 192 194 185 165 163 170 180 176 172 176 177 176 184 188 189 176 183 201 202 187 183 184 192 188 190 189 192 194 193 195 192 184 189 183 175 186 189 191 194 196
210 218 255 244 238 156 177 207 130 101 69 81 161 95 72 230 143 141 208 153 206 193 23 270 210 168 195 236 280 318 358 34 68 92 113 103 115 121 125 169 237 242 157 163 189 202 208 210 194 180 180 186 185 184 187 185 176 184 194 191 194 180 185 202 197 193 181 182 186 188 187 189 191 200 197 188 189 187 191 186 186 185 191 198 191 199
9 299 274 320 3 154 199 146 242 116 173 259 108 207 222 164 99 96 84 43 100 50 239 240 327 313 296 28 11 350 59 354 31 65 102 144 158 139 193 221 217 222 185 193 204 210 205 198 207 206 198 192 186 189 197 191 188 191 188 194 193 178 180 203 206 192 183 181 182 191 191 188 193 196 194 191 186 184 190 186 190 186 192 189 190 197
144 249 299 61 326 11 282 96 57 9 139 79 68 238 160 121 122 121 170 340 56 148 259 38 261 301 21 236 316 92 78 267 333 306 208 185 186 195 224 225 218 210 203 199 215 219 209 207 207 208 209 199 195 195 199 200 195 196 196 199 193 177 184 197 198 190 186 183 188 192 193 192 195 195 198 193 189 181 180 188 193 193 186 194 193 195
125 305 303 293 184 278 1 77 10 360 22 145 198 185 95 293 252 327 91 14 326 282 296 322 299 255 184 248 301 226 192 221 248 275 184 208 212 224 228 239 240 212 192 198 214 223 207 202 211 209 208 206 203 200 199 198 193 195 199 203 195 191 188 185 184 182 183 182 179 185 189 189 196 201 197 196 188 180 185 194 192 196 199 192 191 197
48 157 290 295 126 325 360 66 153 288 338 56 76 60 330 99 152 129 213 174 114 205 45 293 37 253 212 219 187 219 204 201 196 230 231 219 213 218 220 227 232 220 208 204 204 219 223 208 206 209 205 205 203 199 196 193 192 199 198 198 198 193 188 184 184 181 186 185 183 185 190 195 195 197 197 192 180 184 195 198 195 200 198 200 189 198
148 110 202 282 286 39 176 3 195 165 154 126 30 333 3 30 210 110 39 63 179 164 173 180 335 284 269 211 179 215 197 198 178 194 228 232 226 220 222 220 225 227 217 206 205 209 217 213 205 206 207 210 206 201 191 190 192 194 192 199 196 192 187 188 187 184 188 179 188 185 191 192 196 198 193 189 182 187 199 202 201 202 206 192 203 198
98 115 183 324 108 186 231 241 194 170 174 162 159 196 168 136 125 135 252 16 66 98 198 122 237 270 273 179 220 225 232 192 206 174 206 234 230 225 225 229 221 230 228 207 205 208 214 216 208 205 204 201 197 199 193 192 188 188 192 195 192 188 190 186 187 189 184 183 185 189 189 193 188 187 186 187 183 192 196 202 203 202 199 202 208 200
150 147 97 162 193 206 230 280 214 186 150 176 133 186 155 117 109 97 139 253 34 45 108 149 125 275 240 222 241 252 242 218 202 177 195 216 225 229 236 232 231 228 234 208 200 207 213 211 205 198 196 193 193 196 192 184 186 189 190 188 189 188 192 186 188 186 184 182 188 193 190 187 188 184 182 187 187 197 198 200 203 195 198 204 206 204
102 78 75 318 314 302 318 306 73 68 100 39 28 59 100 168 178 165 172 177 133 180 67 6 228 249 281 270 269 240 228 219 198 191 180 212 225 237 242 252 258 248 251 240 212 207 212 219 188 185 181 196 350 7 326 220 206 189 184 187 186 193 191 187 186 185 183 187 193 188 185 186 186 182 183 188 189 197 203 199 198 193 199 206 201 198
115 268 116 82 5 339 343 344 10 335 56 95 227 299 55 88 77 126 110 66 94 212 166 118 217 291 272 331 328 67 162 164 184 216 190 183 233 243 239 264 287 302 315 320 274 245 233 199 53 42 39 46 65 96 92 60 20 359 307 226 190 191 186 185 180 178 180 185 193 188 187 188 186 188 189 190 189 198 200 201 198 192 199 198 201 202
117 176 115 130 147 162 197 248 256 263 224 255 69 20 323 127 132 109 141 37 100 255 111 130 246 251 277 311 339 336 210 203 246 228 243 218 213 230 239 264 284 297 301 314 326 344 25 58 77 183 206 175 167 151 156 170 177 177 191 220 203 183 180 183 179 181 176 183 186 188 190 189 187 191 193 194 195 198 199 199 201 196 199 195 202 196
126 92 113 156 161 184 201 210 248 120 71 135 225 116 249 74 66 99 110 89 199 192 182 232 181 284 306 269 272 251 209 194 203 219 211 224 244 252 255 247 251 253 235 264 297 325 55 104 169 213 215 106 134 177 188 181 192 206 196 198 201 186 179 176 178 180 180 184 189 188 192 189 190 189 191 194 199 199 199 200 199 197 203 199 204 200
74 156 226 141 192 198 183 195 198 167 151 207 134 170 216 144 143 113 138 210 169 108 291 255 194 146 248 243 237 236 240 253 238 211 202 207 214 208 216 234 235 267 286 309 331 293 86 135 189 208 202 146 174 198 203 209 191 193 209 203 187 180 174 173 175 180 184 184 190 194 197 196 189 187 189 190 192 199 203 202 199 198 197 192 206 211
142 174 227 145 232 232 195 222 170 118 130 178 176 151 177 190 150 151 221 183 141 143 203 238 167 186 249 225 217 210 198 203 209 207 192 182 168 177 176 214 247 252 280 293 242 194 133 158 193 213 168 173 189 195 194 193 206 217 214 219 176 177 183 170 174 181 184 184 192 200 199 197 195 187 181 182 185 194 200 201 200 196 194 199 209 209
104 280 179 148 121 32 36 251 250 131 107 102 160 197 179 165 204 192 186 183 178 166 206 179 174 211 223 225 212 216 206 202 182 117 121 152 183 188 189 213 226 242 253 251 264 199 167 198 205 214 148 171 194 207 202 191 193 193 193 183 162 180 191 170 183 179 181 187 195 197 194 194 198 196 189 185 190 193 195 199 193 192 195 205 210 213
106 253 132 68 79 353 311 1 74 119 136 148 263 280 188 176 130 339 111 127 172 20 55 120 165 263 261 210 230 244 119 79 94 150 182 195 180 183 191 207 219 228 237 250 253 259 146 195 223 227 174 176 192 201 207 207 201 187 198 192 175 177 176 173 187 192 185 196 195 188 185 188 200 199 201 206 202 195 195 200 200 203 203 206 211 212
60 229 53 72 107 291 320 70 22 59 79 140 196 251 211 138 170 214 167 202 153 200 115 93 73 268 267 286 252 126 139 162 184 194 208 221 204 189 197 208 217 226 235 231 235 244 211 183 217 223 208 196 207 206 210 207 198 193 208 200 196 179 169 177 187 190 192 191 179 171 150 145 156 172 183 174 196 196 210 213 210 214 211 209 213 217
89 125 145 98 118 244 272 76 74 3 121 321 265 227 191 211 213 154 331 185 201 140 120 141 224 220 234 184 138 182 166 188 192 200 214 222 210 196 203 209 212 222 224 226 218 213 221 205 209 218 220 190 196 204 215 200 184 209 206 200 196 161 171 183 188 190 192 186 170 154 159 182 185 180 172 162 151 149 136 163 210 222 222 221 220 214
84 98 144 167 159 236 285 46 82 105 196 238 232 201 156 178 176 156 202 201 201 162 196 193 210 214 181 168 177 190 169 196 201 213 189 182 186 206 228 227 225 223 231 235 222 215 220 220 227 229 223 211 209 215 200 188 199 212 185 175 163 184 190 185 186 184 187 177 172 169 185 199 194 195 201 192 190 194 200 199 208 205 209 218 223 224
90 75 114 147 101 205 70 75 112 218 230 242 298 270 236 196 166 171 235 258 220 228 345 261 263 225 204 195 200 195 193 186 59 163 208 208 181 186 200 214 226 226 232 234 235 228 215 211 223 242 242 225 199 205 174 199 220 162 134 153 168 183 184 190 174 184 182 183 181 180 187 197 198 201 201 201 203 203 209 214 224 224 216 206 204 210
135 114 157 39 118 80 81 106 171 235 234 292 300 351 170 88 114 93 23 292 230 211 190 210 237 232 213 201 354 116 138 177 90 182 210 222 193 191 187 209 220 213 225 220 212 214 200 199 199 202 222 109 121 136 178 207 163 152 154 146 162 168 164 154 163 174 164 177 179 190 197 205 209 207 201 202 209 214 217 215 214 217 214 210 215 217
143 90 117 239 157 186 197 165 213 290 330 118 29 244 177 163 168 161 198 256 226 198 179 212 234 194 145 135 132 110 119 86 44 310 256 203 203 203 194 212 199 202 209 221 195 206 202 186 181 179 91 77 87 98 86 81 131 145 151 154 175 152 153 152 170 187 187 188 169 200 244 230 219 223 219 209 212 221 225 222 218 222 210 216 216 212
105 201 230 153 263 120 128 248 330 260 228 275 242 264 279 211 171 157 133 264 297 237 214 209 221 186 144 122 119 134 105 74 266 268 255 233 202 180 181 177 183 173 139 147 115 123 129 107 99 103 108 105 87 89 101 90 106 110 129 150 147 145 140 173 212 207 204 205 186 199 208 209 204 212 215 209 218 222 230 233 233 224 208 218 223 223
86 91 148 170 188 81 55 153 202 180 240 211 233 240 244 272 131 130 103 294 264 207 203 187 212 190 176 153 159 125 90 170 236 244 250 230 181 159 147 174 157 156 165 170 163 152 147 129 117 116 99 100 104 101 53 87 104 107 126 148 159 141 165 213 224 214 214 212 195 197 214 219 222 222 217 216 215 215 220 222 226 227 216 226 230 236
60 5 81 150 114 195 149 157 236 195 221 242 231 248 235 143 128 78 166 274 250 203 191 179 192 181 181 161 143 145 146 190 238 249 222 193 168 160 158 161 147 140 147 152 118 136 137 132 111 81 84 86 79 83 55 45 63 96 136 58 69 167 232 240 242 254 281 322 214 234 240 239 233 233 235 236 235 222 222 220 220 217 216 223 224 231
5 350 72 195 203 210 184 231 345 295 278 251 246 214 164 161 107 118 188 235 240 187 184 179 183 172 156 155 167 161 215 183 196 211 221 132 114 103 97 118 154 158 156 157 151 134 122 99 103 122 102 62 59 75 79 79 71 50 30 148 209 241 244 280 297 259 225 196 153 142 156 352 323 298 272 253 245 240 236 224 227 224 221 223 216 216
342 114 335 70 188 215 217 207 219 235 239 195 253 169 168 114 195 188 231 220 154 172 194 177 166 170 168 169 182 198 179 187 182 226 165 155 147 148 136 133 118 94 84 116 131 125 115 108 85 89 83 52 63 68 80 85 77 95 102 82 264 258 244 220 151 106 89 83 73 65 75 65 332 283 300 317 307 279 255 240 234 233 232 223 214 210
202 141 219 185 215 54 71 219 237 229 259 144 112 61 167 144 220 207 165 7 190 171 159 187 165 178 167 185 193 133 124 120 152 169 164 146 144 151 152 151 152 152 149 131 105 108 126 109 97 79 73 60 56 58 68 74 65 58 100 187 246 258 190 137 102 86 92 91 70 26 7 347 329 314 314 302 291 281 274 269 253 242 230 223 220 220
215 112 258 267 178 167 174 189 201 212 236 280 171 183 200 209 192 165 144 122 113 150 170 147 183 173 179 162 174 194 122 116 83 126 127 120 127 131 141 142 129 124 103 78 116 133 113 105 104 103 71 56 45 54 69 74 75 355 193 217 236 226 146 116 88 86 83 38 17 8 356 352 346 348 342 327 319 303 287 272 261 254 241 234 227 221
231 168 184 200 235 146 194 215 250 283 277 269 231 261 276 252 148 178 154 158 154 197 185 153 163 170 182 167 163 150 142 214 176 176 167 175 162 163 168 178 164 155 142 139 144 139 121 131 134 122 87 42 45 69 85 96 149 258 285 120 118 131 152 155 145 127 116 96 309 323 335 340 341 336 337 338 328 306 293 283 276 262 254 242 240 235
354 103 86 116 255 264 254 239 301 315 313 300 269 233 236 289 240 149 148 138 199 159 168 160 163 160 170 171 140 207 182 174 159 190 171 151 166 169 142 124 116 111 119 119 130 134 122 116 119 126 127 80 11 355 335 57 182 245 249 278 281 193 173 168 164 173 182 184 212 234 222 322 319 296 318 319 321 308 297 295 291 282 268 256 247 242
284 331 74 268 292 19 255 343 346 308 296 318 324 331 345 289 268 159 158 149 143 142 140 137 153 163 165 164 169 167 177 172 175 169 145 148 168 178 173 167 150 149 153 164 166 138 127 134 127 129 135 164 290 326 311 308 274 249 260 267 251 214 183 172 172 190 200 202 204 194 185 176 284 257 236 270 290 290 286 287 285 278 275 264 260 253
313 282 20 251 281 164 245 290 314 296 248 260 7 24 357 338 346 30 8 92 123 128 123 133 120 123 136 162 172 156 169 176 168 165 168 178 181 183 176 164 157 157 197 136 143 133 124 124 125 131 145 210 253 265 293 299 306 301 292 289 284 251 196 170 163 170 195 201 188 218 225 239 287 318 253 248 257 274 281 277 267 265 258 257 259 262
252 341 291 310 309 283 287 311 330 347 352 3 11 17 18 15 340 346 52 90 109 111 97 88 115 158 167 171 138 142 149 194 188 176 171 177 172 178 179 160 168 175 156 120 125 134 127 125 123 139 175 222 232 249 279 297 303 299 298 303 314 252 191 178 147 139 179 234 213 236 245 236 248 256 275 297 292 258 243 253 257 255 264 264 268 270
334 295 253 36 8 345 31 293 355 17 318 323 340 340 348 22 25 328 54 89 115 120 130 121 81 93 119 142 155 158 173 183 189 175 180 181 185 171 143 149 163 146 122 123 126 118 110 112 129 156 183 210 253 266 269 277 285 291 286 276 282 160 202 165 147 177 230 242 253 257 256 275 280 244 254 266 270 279 273 234 231 236 247 265 272 268
197 219 57 344 164 282 275 291 279 277 262 235 265 319 319 38 42 10 305 163 171 146 143 126 113 105 135 157 174 169 171 174 186 176 174 183 183 163 155 156 156 152 151 140 119 106 106 130 142 145 199 177 199 239 248 258 255 262 270 251 233 189 186 163 187 218 239 260 259 263 284 254 245 234 250 268 269 278 288 299 247 230 236 243 261 268